Time,TemperatureF,DewpointF,PressureIn,WindDirection,WindDirectionDegrees,WindSpeedMPH,WindSpeedGustMPH,Humidity,HourlyPrecipIn,Conditions,Clouds,dailyrainin,SoftwareType,DateUTC
2013-03-13 00:03:00,62.0,57.0,30.02,NW,319,0.0,5.0,84,0.00,,,0.00,,2013-03-13 04:03:00,
2013-03-13 00:13:00,62.0,57.0,30.02,NW,319,0.0,5.0,84,0.00,,,0.00,,2013-03-13 04:13:00,
2013-03-13 00:22:00,61.0,56.0,30.01,NNW,348,0.0,4.0,85,0.00,,,0.00,,2013-03-13 04:22:00,
2013-03-13 00:32:00,61.0,56.0,30.01,NW,309,1.0,4.0,84,0.00,,,0.00,,2013-03-13 04:32:00,
2013-03-13 00:43:00,61.0,56.0,30.01,NW,309,1.0,4.0,84,0.00,,,0.00,,2013-03-13 04:43:00,
2013-03-13 00:53:00,60.0,55.0,30.01,NW,321,1.0,3.0,83,0.00,,,0.00,,2013-03-13 04:53:00,
2013-03-13 01:02:00,60.0,55.0,30.01,NNW,331,1.0,3.0,83,0.00,,,0.00,,2013-03-13 05:02:00,
2013-03-13 01:12:00,60.0,55.0,30.01,NNW,331,1.0,3.0,83,0.00,,,0.00,,2013-03-13 05:12:00,
2013-03-13 01:22:00,60.0,55.0,30.01,NNW,331,1.0,3.0,83,0.00,,,0.00,,2013-03-13 05:22:00,
2013-03-13 01:32:00,59.0,54.0,30.01,WSW,258,0.0,7.0,83,0.00,,,0.00,,2013-03-13 05:32:00,
2013-03-13 01:42:00,59.0,54.0,30.01,WSW,258,0.0,7.0,83,0.00,,,0.00,,2013-03-13 05:42:00,
2013-03-13 01:52:00,58.0,53.0,30.02,NW,311,0.0,1.0,84,0.00,,,0.00,,2013-03-13 05:52:00,
2013-03-13 02:02:00,58.0,53.0,30.02,NW,311,0.0,1.0,84,0.00,,,0.00,,2013-03-13 06:02:00,
2013-03-13 02:12:00,58.0,53.0,30.02,NW,311,0.0,1.0,84,0.00,,,0.00,,2013-03-13 06:12:00,
2013-03-13 02:23:00,57.0,53.0,30.03,North,350,1.0,1.0,86,0.00,,,0.00,,2013-03-13 06:23:00,
2013-03-13 02:32:00,57.0,53.0,30.03,North,350,0.0,1.0,86,0.00,,,0.00,,2013-03-13 06:32:00,
2013-03-13 02:42:00,57.0,53.0,30.03,North,350,0.0,1.0,86,0.00,,,0.00,,2013-03-13 06:42:00,
2013-03-13 02:53:00,56.0,52.0,30.03,North,350,0.0,0.0,87,0.00,,,0.00,,2013-03-13 06:53:00,
2013-03-13 03:02:00,55.0,52.0,30.03,North,350,0.0,1.0,88,0.00,,,0.00,,2013-03-13 07:02:00,
2013-03-13 03:12:00,55.0,52.0,30.03,North,350,0.0,1.0,88,0.00,,,0.00,,2013-03-13 07:12:00,
2013-03-13 03:22:00,55.0,52.0,30.02,North,350,0.0,1.0,89,0.00,,,0.00,,2013-03-13 07:22:00,
2013-03-13 03:32:00,55.0,52.0,30.02,North,350,0.0,1.0,89,0.00,,,0.00,,2013-03-13 07:32:00,
2013-03-13 03:42:00,55.0,52.0,30.02,North,350,0.0,1.0,89,0.00,,,0.00,,2013-03-13 07:42:00,
2013-03-13 03:52:00,54.0,51.0,30.02,North,350,0.0,1.0,91,0.00,,,0.00,,2013-03-13 07:52:00,
2013-03-13 04:03:00,54.0,51.0,30.02,North,350,0.0,1.0,91,0.00,,,0.00,,2013-03-13 08:03:00,
2013-03-13 04:12:00,54.0,51.0,30.02,North,350,0.0,1.0,91,0.00,,,0.00,,2013-03-13 08:12:00,
2013-03-13 04:22:00,53.0,50.0,30.02,North,350,0.0,0.0,91,0.00,,,0.00,,2013-03-13 08:22:00,
2013-03-13 04:32:00,53.0,51.0,30.02,North,350,0.0,1.0,92,0.00,,,0.00,,2013-03-13 08:32:00,
2013-03-13 04:43:00,53.0,51.0,30.02,North,350,0.0,1.0,92,0.00,,,0.00,,2013-03-13 08:43:00,
2013-03-13 04:54:00,52.0,50.0,30.02,North,350,0.0,1.0,92,0.00,,,0.00,,2013-03-13 08:54:00,
2013-03-13 05:02:00,51.0,48.0,30.02,North,350,0.0,0.0,91,0.00,,,0.00,,2013-03-13 09:02:00,
2013-03-13 05:12:00,51.0,48.0,30.02,North,350,0.0,0.0,91,0.00,,,0.00,,2013-03-13 09:12:00,
2013-03-13 05:22:00,50.0,48.0,30.03,North,350,0.0,0.0,92,0.00,,,0.00,,2013-03-13 09:22:00,
2013-03-13 05:32:00,50.0,48.0,30.03,North,350,0.0,0.0,92,0.00,,,0.00,,2013-03-13 09:32:00,
2013-03-13 05:42:00,50.0,48.0,30.03,North,350,0.0,0.0,92,0.00,,,0.00,,2013-03-13 09:42:00,
2013-03-13 05:52:00,51.0,49.0,30.03,North,350,0.0,2.0,94,0.00,,,0.00,,2013-03-13 09:52:00,
2013-03-13 06:02:00,52.0,50.0,30.03,West,266,1.0,2.0,94,0.00,,,0.00,,2013-03-13 10:02:00,
2013-03-13 06:12:00,52.0,50.0,30.03,West,266,1.0,2.0,94,0.00,,,0.00,,2013-03-13 10:12:00,
2013-03-13 06:22:00,52.0,50.0,30.04,NNW,338,0.0,1.0,94,0.00,,,0.00,,2013-03-13 10:22:00,
2013-03-13 06:32:00,52.0,50.0,30.04,NNW,338,2.0,3.0,93,0.00,,,0.00,,2013-03-13 10:32:00,
2013-03-13 06:42:00,52.0,50.0,30.04,NNW,338,2.0,3.0,93,0.00,,,0.00,,2013-03-13 10:42:00,
2013-03-13 06:52:00,53.0,50.0,30.04,NNW,334,0.0,3.0,91,0.00,,,0.00,,2013-03-13 10:52:00,
2013-03-13 07:02:00,53.0,50.0,30.05,NW,308,3.0,3.0,89,0.00,,,0.00,,2013-03-13 11:02:00,
2013-03-13 07:12:00,53.0,50.0,30.05,NW,308,3.0,3.0,89,0.00,,,0.00,,2013-03-13 11:12:00,
2013-03-13 07:22:00,54.0,50.0,30.06,NW,326,0.0,3.0,87,0.00,,,0.00,,2013-03-13 11:22:00,
2013-03-13 07:32:00,54.0,50.0,30.06,WNW,298,0.0,3.0,86,0.00,,,0.00,,2013-03-13 11:32:00,
2013-03-13 07:42:00,54.0,50.0,30.06,WNW,298,0.0,3.0,86,0.00,,,0.00,,2013-03-13 11:42:00,
2013-03-13 07:53:00,54.0,50.0,30.06,NE,44,1.0,4.0,85,0.00,,,0.00,,2013-03-13 11:53:00,
2013-03-13 08:02:00,54.0,49.0,30.07,North,355,0.0,6.0,84,0.00,,,0.00,,2013-03-13 12:02:00,
2013-03-13 08:12:00,54.0,49.0,30.07,North,355,0.0,6.0,84,0.00,,,0.00,,2013-03-13 12:12:00,
2013-03-13 08:22:00,54.0,49.0,30.07,NNE,31,1.0,6.0,84,0.00,,,0.00,,2013-03-13 12:22:00,
2013-03-13 08:32:00,54.0,49.0,30.07,NNE,31,1.0,6.0,84,0.00,,,0.00,,2013-03-13 12:32:00,
2013-03-13 08:42:00,54.0,49.0,30.07,NNE,31,1.0,6.0,84,0.00,,,0.00,,2013-03-13 12:42:00,
2013-03-13 08:52:00,55.0,50.0,30.09,NNW,327,0.0,2.0,82,0.00,,,0.00,,2013-03-13 12:52:00,
2013-03-13 09:02:00,55.0,49.0,30.09,North,5,0.0,2.0,81,0.00,,,0.00,,2013-03-13 13:02:00,
2013-03-13 09:12:00,55.0,49.0,30.09,North,5,0.0,2.0,81,0.00,,,0.00,,2013-03-13 13:12:00,
2013-03-13 09:22:00,56.0,50.0,30.11,NNW,331,1.0,3.0,79,0.00,,,0.00,,2013-03-13 13:22:00,
2013-03-13 09:33:00,56.0,50.0,30.11,NNW,331,1.0,3.0,79,0.00,,,0.00,,2013-03-13 13:33:00,
2013-03-13 09:43:00,56.0,50.0,30.11,NNW,331,1.0,3.0,79,0.00,,,0.00,,2013-03-13 13:43:00,
2013-03-13 09:53:00,59.0,50.0,30.12,NE,49,0.0,3.0,71,0.00,,,0.00,,2013-03-13 13:53:00,
2013-03-13 10:02:00,60.0,49.0,30.12,North,9,0.0,5.0,68,0.00,,,0.00,,2013-03-13 14:02:00,
2013-03-13 10:12:00,60.0,49.0,30.12,North,9,0.0,5.0,68,0.00,,,0.00,,2013-03-13 14:12:00,
2013-03-13 10:22:00,62.0,49.0,30.13,West,272,4.0,5.0,62,0.00,,,0.00,,2013-03-13 14:22:00,
2013-03-13 10:33:00,62.0,48.0,30.13,NNE,13,0.0,6.0,61,0.00,,,0.00,,2013-03-13 14:33:00,
2013-03-13 10:42:00,62.0,48.0,30.13,NNE,13,0.0,6.0,61,0.00,,,0.00,,2013-03-13 14:42:00,
2013-03-13 10:53:00,62.0,47.0,30.13,East,86,0.0,4.0,59,0.00,,,0.00,,2013-03-13 14:53:00,
2013-03-13 11:03:00,63.0,47.0,30.14,NW,317,0.0,9.0,56,0.00,,,0.00,,2013-03-13 15:03:00,
2013-03-13 11:12:00,63.0,47.0,30.14,NW,317,0.0,9.0,56,0.00,,,0.00,,2013-03-13 15:12:00,
2013-03-13 11:22:00,66.0,47.0,30.13,NW,313,0.0,6.0,51,0.00,,,0.00,,2013-03-13 15:22:00,
2013-03-13 11:32:00,66.0,47.0,30.13,North,355,0.0,9.0,50,0.00,,,0.00,,2013-03-13 15:32:00,
2013-03-13 11:42:00,66.0,47.0,30.13,North,355,0.0,9.0,50,0.00,,,0.00,,2013-03-13 15:42:00,
2013-03-13 11:53:00,68.0,46.0,30.13,ENE,61,1.0,4.0,45,0.00,,,0.00,,2013-03-13 15:53:00,
2013-03-13 12:03:00,69.0,46.0,30.14,North,5,3.0,7.0,44,0.00,,,0.00,,2013-03-13 16:03:00,
2013-03-13 12:12:00,69.0,46.0,30.14,North,5,3.0,7.0,44,0.00,,,0.00,,2013-03-13 16:12:00,
2013-03-13 12:22:00,68.0,45.0,30.14,East,83,3.0,7.0,43,0.00,,,0.00,,2013-03-13 16:22:00,
2013-03-13 12:32:00,68.0,46.0,30.13,NNE,32,0.0,5.0,46,0.00,,,0.00,,2013-03-13 16:32:00,
2013-03-13 12:42:00,68.0,46.0,30.13,NNE,32,0.0,5.0,46,0.00,,,0.00,,2013-03-13 16:42:00,
2013-03-13 12:52:00,69.0,46.0,30.13,ENE,57,0.0,6.0,44,0.00,,,0.00,,2013-03-13 16:52:00,
2013-03-13 13:03:00,70.0,48.0,30.13,NE,55,1.0,8.0,46,0.00,,,0.00,,2013-03-13 17:03:00,
2013-03-13 13:12:00,70.0,48.0,30.13,NE,55,1.0,8.0,46,0.00,,,0.00,,2013-03-13 17:12:00,
2013-03-13 13:22:00,71.0,48.0,30.13,ENE,66,2.0,5.0,44,0.00,,,0.00,,2013-03-13 17:22:00,
2013-03-13 13:33:00,72.0,48.0,30.12,NE,44,3.0,7.0,42,0.00,,,0.00,,2013-03-13 17:33:00,
2013-03-13 13:42:00,72.0,48.0,30.12,NE,44,3.0,7.0,42,0.00,,,0.00,,2013-03-13 17:42:00,
2013-03-13 13:53:00,73.0,48.0,30.11,ENE,77,0.0,6.0,41,0.00,,,0.00,,2013-03-13 17:53:00,
2013-03-13 14:02:00,74.0,47.0,30.11,ENE,65,0.0,7.0,39,0.00,,,0.00,,2013-03-13 18:02:00,
2013-03-13 14:12:00,74.0,47.0,30.11,ENE,65,0.0,7.0,39,0.00,,,0.00,,2013-03-13 18:12:00,
2013-03-13 14:22:00,74.0,47.0,30.10,NNE,30,3.0,6.0,38,0.00,,,0.00,,2013-03-13 18:22:00,
2013-03-13 14:33:00,74.0,47.0,30.10,NNE,30,3.0,6.0,38,0.00,,,0.00,,2013-03-13 18:33:00,
2013-03-13 14:42:00,74.0,47.0,30.10,NNE,30,3.0,6.0,38,0.00,,,0.00,,2013-03-13 18:42:00,
2013-03-13 14:52:00,75.0,45.0,30.09,NNE,13,0.0,10.0,35,0.00,,,0.00,,2013-03-13 18:52:00,
2013-03-13 15:02:00,75.0,45.0,30.09,WNW,302,0.0,10.0,34,0.00,,,0.00,,2013-03-13 19:02:00,
2013-03-13 15:12:00,75.0,45.0,30.09,WNW,302,0.0,10.0,34,0.00,,,0.00,,2013-03-13 19:12:00,
2013-03-13 15:22:00,76.0,46.0,30.08,NE,46,1.0,3.0,35,0.00,,,0.00,,2013-03-13 19:22:00,
2013-03-13 15:32:00,76.0,46.0,30.08,NE,46,1.0,3.0,35,0.00,,,0.00,,2013-03-13 19:32:00,
2013-03-13 15:43:00,76.0,46.0,30.08,NE,46,1.0,3.0,35,0.00,,,0.00,,2013-03-13 19:43:00,
2013-03-13 15:53:00,77.0,46.0,30.07,NNW,340,0.0,9.0,34,0.00,,,0.00,,2013-03-13 19:53:00,
2013-03-13 16:02:00,77.0,44.0,30.06,North,5,0.0,6.0,31,0.00,,,0.00,,2013-03-13 20:02:00,
2013-03-13 16:12:00,77.0,44.0,30.06,North,5,0.0,6.0,31,0.00,,,0.00,,2013-03-13 20:12:00,
2013-03-13 16:22:00,78.0,43.0,30.05,NW,320,3.0,9.0,29,0.00,,,0.00,,2013-03-13 20:22:00,
2013-03-13 16:32:00,78.0,42.0,30.05,NW,313,0.0,9.0,28,0.00,,,0.00,,2013-03-13 20:32:00,
2013-03-13 16:42:00,78.0,42.0,30.05,NW,313,0.0,9.0,28,0.00,,,0.00,,2013-03-13 20:42:00,
2013-03-13 16:52:00,78.0,42.0,30.05,West,279,5.0,8.0,28,0.00,,,0.00,,2013-03-13 20:52:00,
2013-03-13 17:02:00,78.0,42.0,30.05,West,279,5.0,8.0,28,0.00,,,0.00,,2013-03-13 21:02:00,
2013-03-13 17:12:00,78.0,42.0,30.05,West,279,5.0,8.0,28,0.00,,,0.00,,2013-03-13 21:12:00,
2013-03-13 17:22:00,79.0,41.0,30.04,NNE,24,0.0,6.0,26,0.00,,,0.00,,2013-03-13 21:22:00,
2013-03-13 17:33:00,78.0,42.0,30.04,NE,40,3.0,9.0,28,0.00,,,0.00,,2013-03-13 21:33:00,
2013-03-13 17:42:00,78.0,42.0,30.04,NE,40,3.0,9.0,28,0.00,,,0.00,,2013-03-13 21:42:00,
2013-03-13 17:52:00,78.0,41.0,30.04,NW,311,2.0,3.0,27,0.00,,,0.00,,2013-03-13 21:52:00,
2013-03-13 18:02:00,78.0,40.0,30.04,West,263,0.0,7.0,26,0.00,,,0.00,,2013-03-13 22:02:00,
2013-03-13 18:12:00,78.0,40.0,30.04,West,263,0.0,7.0,26,0.00,,,0.00,,2013-03-13 22:12:00,
2013-03-13 18:22:00,76.0,52.0,30.04,NW,317,0.0,6.0,43,0.00,,,0.00,,2013-03-13 22:22:00,
2013-03-13 18:32:00,74.0,53.0,30.04,WSW,257,4.0,7.0,48,0.00,,,0.00,,2013-03-13 22:32:00,
2013-03-13 18:42:00,74.0,53.0,30.04,WSW,257,4.0,7.0,48,0.00,,,0.00,,2013-03-13 22:42:00,
2013-03-13 18:52:00,72.0,54.0,30.05,WNW,282,3.0,8.0,53,0.00,,,0.00,,2013-03-13 22:52:00,
2013-03-13 19:02:00,72.0,54.0,30.05,WNW,282,3.0,8.0,53,0.00,,,0.00,,2013-03-13 23:02:00,
2013-03-13 19:12:00,72.0,54.0,30.05,WNW,282,3.0,8.0,53,0.00,,,0.00,,2013-03-13 23:12:00,
2013-03-13 19:22:00,72.0,54.0,30.05,WNW,282,3.0,8.0,53,0.00,,,0.00,,2013-03-13 23:22:00,
2013-03-13 19:32:00,69.0,55.0,30.06,West,280,0.0,3.0,61,0.00,,,0.00,,2013-03-13 23:32:00,
2013-03-13 19:43:00,69.0,55.0,30.06,West,280,0.0,3.0,61,0.00,,,0.00,,2013-03-13 23:43:00,
2013-03-13 19:52:00,67.0,54.0,30.06,West,261,1.0,3.0,64,0.00,,,0.00,,2013-03-13 23:52:00,
2013-03-13 20:02:00,67.0,54.0,30.06,West,261,1.0,3.0,64,0.00,,,0.00,,2013-03-14 00:02:00,
2013-03-13 20:13:00,67.0,54.0,30.06,West,261,1.0,3.0,64,0.00,,,0.00,,2013-03-14 00:13:00,
2013-03-13 20:22:00,65.0,54.0,30.08,West,262,0.0,1.0,68,0.00,,,0.00,,2013-03-14 00:22:00,
2013-03-13 20:32:00,64.0,54.0,30.08,West,266,0.0,2.0,70,0.00,,,0.00,,2013-03-14 00:32:00,
2013-03-13 20:42:00,64.0,54.0,30.08,West,266,0.0,2.0,70,0.00,,,0.00,,2013-03-14 00:42:00,
2013-03-13 20:52:00,64.0,54.0,30.08,West,266,0.0,2.0,70,0.00,,,0.00,,2013-03-14 00:52:00,
2013-03-13 21:02:00,63.0,55.0,30.08,WNW,291,0.0,2.0,74,0.00,,,0.00,,2013-03-14 01:02:00,
2013-03-13 21:12:00,63.0,55.0,30.08,WNW,291,0.0,2.0,74,0.00,,,0.00,,2013-03-14 01:12:00,
2013-03-13 21:23:00,63.0,55.0,30.08,WNW,301,0.0,3.0,75,0.00,,,0.00,,2013-03-14 01:23:00,
2013-03-13 21:32:00,62.0,54.0,30.10,WNW,301,0.0,1.0,76,0.00,,,0.00,,2013-03-14 01:32:00,
2013-03-13 21:42:00,62.0,54.0,30.10,WNW,301,0.0,1.0,76,0.00,,,0.00,,2013-03-14 01:42:00,
2013-03-13 21:52:00,61.0,54.0,30.11,WNW,301,0.0,0.0,77,0.00,,,0.00,,2013-03-14 01:52:00,
2013-03-13 22:02:00,60.0,53.0,30.11,WNW,300,0.0,3.0,77,0.00,,,0.00,,2013-03-14 02:02:00,
2013-03-13 22:12:00,60.0,53.0,30.11,WNW,300,0.0,3.0,77,0.00,,,0.00,,2013-03-14 02:12:00,
2013-03-13 22:22:00,60.0,53.0,30.11,NW,308,0.0,3.0,77,0.00,,,0.00,,2013-03-14 02:22:00,
2013-03-13 22:32:00,61.0,53.0,30.12,NW,314,2.0,5.0,74,0.00,,,0.00,,2013-03-14 02:32:00,
2013-03-13 22:42:00,61.0,53.0,30.12,NW,314,2.0,5.0,74,0.00,,,0.00,,2013-03-14 02:42:00,
2013-03-13 22:51:00,61.0,53.0,30.12,NW,314,2.0,5.0,74,0.00,,,0.00,,2013-03-14 02:51:00,
2013-03-13 23:02:00,61.0,51.0,30.13,NNW,343,0.0,4.0,70,0.00,,,0.00,,2013-03-14 03:02:00,
2013-03-13 23:12:00,61.0,51.0,30.13,NNW,343,0.0,4.0,70,0.00,,,0.00,,2013-03-14 03:12:00,
2013-03-13 23:23:00,61.0,51.0,30.13,NW,317,0.0,4.0,69,0.00,,,0.00,,2013-03-14 03:23:00,
2013-03-13 23:32:00,61.0,50.0,30.14,WNW,300,1.0,5.0,66,0.00,,,0.00,,2013-03-14 03:32:00,
2013-03-13 23:42:00,61.0,50.0,30.14,WNW,300,1.0,5.0,66,0.00,,,0.00,,2013-03-14 03:42:00,
2013-03-13 23:53:00,61.0,48.0,30.14,NW,324,2.0,4.0,62,0.00,,,0.00,,2013-03-14 03:53:00,